Location: Cosy Dell
(34.2789°N, 117.4537°W)
Time: 20:55:04
(UTC+00:00)

ATLAS 2AS CENTAUR R/B - Pass Details

Date: 14 July 2020
Orbit: 930 x 1282 km, 63.7° (Epoch: 19 July)

Event Time Altitude Azimuth Distance (km) Brightness Sun altitude
Rises 05:16:59 0° 330° (NNW) 4,113 7.2 -22.6°
Reaches altitude 10° 05:19:51 10° 333° (NNW) 3,100 6.2 -22.9°
Maximum altitude 05:27:14 76° 58° (ENE) 1,137 2.7 -23.9°
Enters shadow 05:29:19 48° 132° (SE) 1,378 2.8 -24.2°
